Cape Moreton Observation History
Time Wind Speed Temp Pressure Rel. Hum Rain
30/09:30am SE 6-8 kts 26.2°c 1016.9 hPa 70% 0.0mm
30/09:00am ESE 6-9 kts 26.1°c 1017.0 hPa 72% 0.0mm
30/08:30am SE 5-8 kts 25.7°c 1017.0 hPa 73% 0.0mm
30/08:00am SE 5-7 kts 25.1°c 1017.0 hPa 75% 0.0mm
30/07:30am SSW 4-5 kts 23.4°c 1016.7 hPa 79% 0.0mm
30/07:00am SSW 6-7 kts 22.5°c 1016.3 hPa 78% 0.0mm
30/06:30am SSW 6-7 kts 22.2°c 1016.1 hPa 81% 0.0mm
30/06:00am SSW 6-7 kts 21.9°c 1015.8 hPa 82% 0.0mm
30/05:30am SSE 4-6 kts 22.2°c 1015.7 hPa 84% 0.0mm
30/05:00am E 5-6 kts 22.4°c 1015.5 hPa 78% 0.0mm
30/04:30am E 3-4 kts 22.3°c 1015.5 hPa 79% 0.0mm
30/04:00am ESE 3-4 kts 22.3°c 1015.7 hPa 78% 0.0mm
30/03:30am ESE 3-5 kts 22.4°c 1015.8 hPa 77% 0.0mm
30/03:00am ESE 4-6 kts 22.4°c 1016.0 hPa 77% 0.0mm
30/02:30am ESE 4-6 kts 22.6°c 1016.2 hPa 76% 0.0mm
30/02:00am E 6-9 kts 22.4°c 1016.4 hPa 79% 0.0mm
30/01:30am E 4-5 kts 22.7°c 1016.8 hPa 79% 0.0mm
30/01:00am E 8-9 kts 22.7°c 1017.0 hPa 78% 0.0mm
30/12:30am E 8-11 kts 22.8°c 1017.1 hPa 79% 0.0mm
30/12:00am E 9-10 kts 22.8°c 1017.3 hPa 78% 0.0mm
Time Wind Speed Temp Pressure Rel. Hum Rain
29/11:30pm E 8-11 kts 22.8°c 1017.5 hPa 78% 0.0mm
29/11:00pm E 9-11 kts 22.8°c 1017.5 hPa 78% 0.0mm
29/10:30pm E 10-12 kts 22.8°c 1017.7 hPa 78% 0.0mm
29/10:00pm ESE 9-11 kts 22.9°c 1018.1 hPa 79% 0.0mm
29/09:30pm ESE 9-11 kts 22.7°c 1018.3 hPa 80% 0.0mm
29/09:00pm E 10-13 kts 22.7°c 1017.9 hPa 80% 0.0mm
29/08:30pm ESE 10-13 kts 22.8°c 1017.9 hPa 80% 0.0mm
29/08:00pm E 11-13 kts 22.9°c 1017.9 hPa 81% 0.0mm
29/07:30pm ESE 11-14 kts 22.6°c 1017.7 hPa 81% 0.0mm
29/07:00pm ESE 11-14 kts 22.6°c 1017.6 hPa 82% 0.0mm
29/06:30pm ESE 11-14 kts 22.6°c 1017.3 hPa 81% 0.0mm
29/06:00pm ESE 11-14 kts 22.6°c 1017.0 hPa 82% 0.0mm
29/05:30pm ESE 10-14 kts 23.1°c 1016.9 hPa 82% 0.0mm
29/05:00pm ESE 11-14 kts 23.1°c 1016.5 hPa 79% 0.0mm
29/04:30pm ESE 10-14 kts 23.6°c 1016.4 hPa 78% 0.0mm
29/04:00pm ESE 10-13 kts 23.4°c 1016.3 hPa 77% 0.0mm
29/03:30pm ESE 9-12 kts 23.5°c 1016.2 hPa 76% 0.0mm
29/03:00pm ESE 9-11 kts 23.5°c 1016.4 hPa 80% 0.0mm
29/02:30pm ESE 9-11 kts 22.2°c 1016.7 hPa 81% 0.0mm
29/02:00pm E 18-23 kts 22.2°c 1016.8 hPa 79% 0.0mm
29/01:44pm SE 15-23 kts 24.3°c 1016.7 hPa 76% 0.0mm
29/01:30pm SE 9-12 kts 25.8°c 1016.9 hPa 70% 0.0mm
29/01:00pm SSE 7-11 kts 25.4°c 1017.0 hPa 69% 0.0mm
29/12:30pm SSE 8-11 kts 25.8°c 1017.3 hPa 72% 0.0mm
29/12:00pm ESE 8-10 kts 26.4°c 1017.6 hPa 67% 0.0mm
29/11:30am E 8-10 kts 26.9°c 1018.0 hPa 69% 0.0mm
29/11:00am ESE 8-11 kts 26.7°c 1018.3 hPa 68% 0.0mm
29/10:30am ESE 8-10 kts 26.7°c 1018.4 hPa 68% 0.0mm
29/10:00am E 9-11 kts 26.2°c 1018.6 hPa 65% 0.0mm
29/09:30am ESE 8-9 kts 26.0°c 1018.8 hPa 68% 0.0mm
29/09:00am E 8-11 kts 25.7°c 1018.8 hPa 70% 0.6mm
29/08:30am E 6-7 kts 25.2°c 1018.7 hPa 74% 0.6mm
29/08:00am E 8-9 kts 24.8°c 1018.6 hPa 80% 0.6mm
29/07:30am E 12-15 kts 22.6°c 1018.2 hPa 85% 0.6mm
29/07:00am E 13-17 kts 22.5°c 1018.0 hPa 82% 0.6mm
29/06:30am E 11-14 kts 21.7°c 1017.6 hPa 86% 0.6mm
29/06:00am E 13-15 kts 21.7°c 1017.3 hPa 84% 0.6mm
29/05:30am ESE 15-20 kts 21.3°c 1017.0 hPa 87% 0.6mm
29/05:00am ESE 15-19 kts 21.3°c 1016.5 hPa 87% 0.6mm
29/04:30am ESE 14-17 kts 21.6°c 1016.3 hPa 89% 0.6mm
29/04:00am SE 10-13 kts 22.1°c 1016.4 hPa 86% 0.6mm
29/03:30am E 9-11 kts 22.1°c 1016.4 hPa 86% 0.6mm
29/03:00am E 11-15 kts 22.1°c 1016.6 hPa 84% 0.6mm
29/02:30am ENE 10-15 kts 22.5°c 1016.8 hPa 84% 0.4mm
29/02:00am ENE 11-15 kts 22.1°c 1017.2 hPa 77% 0.4mm
29/01:30am ENE 11-13 kts 22.0°c 1016.9 hPa 87% 0.4mm
29/01:00am ENE 15-17 kts 21.5°c 1017.0 hPa 90% 0.4mm
29/12:30am ESE 18-23 kts 22.3°c 1017.4 hPa 87% 0.4mm
29/12:00am ESE 17-21 kts 22.9°c 1017.5 hPa 84% 0.4mm
Time Wind Speed Temp Pressure Rel. Hum Rain
28/11:30pm ESE 10-15 kts 22.1°c 1017.8 hPa 88% 0.4mm
28/11:00pm ESE 10-12 kts 21.9°c 1018.0 hPa 87% 0.4mm
28/10:30pm ESE 15-20 kts 21.2°c 1018.5 hPa 86% 0.4mm
28/10:00pm ESE 17-22 kts 21.2°c 1018.6 hPa 84% 0.4mm
28/09:42pm ESE 15-25 kts 21.7°c 1018.7 hPa 85% 0.4mm
28/09:30pm ESE 16-19 kts 22.3°c 1018.7 hPa 79% 0.4mm
28/09:00pm E 10-14 kts 22.8°c 1018.9 hPa 81% 0.4mm
28/08:30pm ESE 11-14 kts 22.5°c 1018.6 hPa 83% 0.4mm
28/08:00pm ESE 10-11 kts 22.3°c 1018.1 hPa 80% 0.4mm
28/07:30pm ESE 10-13 kts 22.1°c 1018.0 hPa 82% 0.4mm
28/07:00pm ESE 9-13 kts 22.1°c 1018.1 hPa 84% 0.4mm
28/06:30pm E 15-17 kts 22.1°c 1018.1 hPa 81% 0.4mm
28/06:00pm ESE 15-22 kts 22.7°c 1017.8 hPa 83% 0.4mm
28/05:30pm ESE 10-13 kts 22.8°c 1017.7 hPa 78% 0.4mm
28/05:00pm SE 12-15 kts 23.1°c 1017.3 hPa 80% 0.4mm
28/04:30pm SE 12-15 kts 23.1°c 1017.4 hPa 81% 0.4mm
28/04:00pm SE 10-13 kts 23.2°c 1017.3 hPa 83% 0.4mm
28/03:30pm SE 9-12 kts 23.3°c 1017.3 hPa 78% 0.4mm
28/03:00pm ESE 11-15 kts 24.1°c 1017.4 hPa 72% 0.4mm
28/02:30pm SE 15-18 kts 23.1°c 1017.4 hPa 77% 0.4mm
28/02:00pm SE 13-18 kts 24.0°c 1017.5 hPa 80% 0.4mm
28/01:30pm SE 12-15 kts 24.3°c 1017.8 hPa 81% 0.2mm
28/01:00pm ESE 18-22 kts 21.8°c 1018.1 hPa 86% 0.2mm
28/12:30pm SE 19-23 kts 22.5°c 1018.4 hPa 83% 0.2mm
28/12:00pm SE 20-25 kts 21.6°c 1018.5 hPa 90% 0.2mm
28/11:30am SSE 17-21 kts 23.7°c 1018.7 hPa 82% 0.2mm
28/11:00am SSE 16-19 kts 22.6°c 1019.1 hPa 87% 0.2mm
28/10:30am SSE 16-22 kts 22.8°c 1019.2 hPa 85% 0.2mm
28/10:00am S 17-24 kts 22.3°c 1019.3 hPa 87% 0.2mm
28/09:30am SE 17-20 kts 23.1°c 1019.3 hPa 82% 0.0mm
28/09:00am S 12-21 kts 21.8°c 1019.3 hPa 92% 56.0mm
28/08:30am SSW 13-17 kts 20.7°c 1019.1 hPa 93% 56.0mm
28/08:00am SW 13-17 kts 20.0°c 1019.1 hPa 94% 56.0mm
28/07:30am SSW 12-19 kts 20.2°c 1018.9 hPa 95% 56.0mm
28/07:00am SSW 15-21 kts 20.4°c 1018.6 hPa 96% 56.0mm
28/06:30am SSW 13-19 kts 20.1°c 1018.3 hPa 95% 55.6mm
28/06:00am S 14-23 kts 20.7°c 1018.2 hPa 95% 54.8mm
28/05:30am SSE 15-21 kts 21.1°c 1018.1 hPa 93% 53.6mm
28/05:00am SSE 18-24 kts 20.5°c 1017.9 hPa 93% 53.2mm
28/04:40am SSE 17-28 kts 20.3°c 1017.7 hPa 94% 53.0mm
28/04:30am SE 19-25 kts 20.6°c 1017.6 hPa 94% 52.8mm
28/04:00am SE 22-27 kts 20.7°c 1017.5 hPa 96% 52.4mm
28/03:30am ESE 16-21 kts 19.8°c 1017.6 hPa 96% 51.4mm
28/03:00am ESE 23-31 kts 19.9°c 1017.5 hPa 95% 48.8mm
28/02:49am SE 23-30 kts 21.6°c 1017.5 hPa 92% 46.8mm
28/02:30am SSE 28-33 kts 21.4°c 1017.3 hPa 90% 46.8mm
28/02:00am SSE 25-30 kts 21.4°c 1017.7 hPa 94% 46.8mm
28/01:34am SSE 21-33 kts 21.3°c 1017.8 hPa 96% 46.8mm
28/01:30am SSE 21-27 kts 20.8°c 1018.2 hPa 95% 46.2mm
28/01:00am SSE 20-31 kts 20.8°c 1018.0 hPa 95% 46.0mm
28/12:59am SSE 19-31 kts 20.9°c 1018.1 hPa 95% 46.0mm
28/12:30am SSE 21-29 kts 20.8°c 1018.4 hPa 91% 43.8mm
28/12:11am S 22-32 kts 20.9°c 1018.6 hPa 90% 43.8mm
28/12:00am SSE 20-29 kts 21.1°c 1018.8 hPa 91% 43.8mm